SCP
0 0 0 0 0 -0 0 0 0 0 0 0 0 0 0 0 0 0 0 1 1 1 1 1 0 0 0 0 0 0 0 0 0 0 0 0 0 0 0 0 0 0 0 0 0 0 0 0 0
0 0 0 -0 -0 -0 0 0 0 0 0 0 0 0 0 0 0 0 1 1 1 1 1 0 0 0 0 0 0 0 0 0 0 0 0 0 0 0 0 0 0 0 0 0 0 0 0 0 0
0 0 0 -0 -0 -0 0 0 0 0 0 0 0 0 0 1 1 1 1 1 1 1 1 0 0 0 0 0 0 0 0 0 0 0 0 0 0 0 0 0 0 0 0 0 0 0 0 0 0
0 0 -0 0 0 0 0 0 0 0 0 0 0 1 1 1 1 1 1 1 1 1 1 1 0 0 0 0 0 0 0 0 0 0 0 0 0 0 0 0 0 0 0 0 0 0 0 0 0
0 -0 -0 0 0 0 0 0 0 0 0 0 0 1 1 1 1 1 1 1 1 1 1 1 1 0 0 0 0 0 0 0 0 0 0 0 0 0 0 0 0 0 0 0 0 0 0 0 0
0 -0 0 0 0 0 0 0 0 0 0 0 1 1 1 1 1 1 1 1 1 1 1 1 1 1 0 0 0 0 0 0 0 0 0 0 0 0 0 0 0 0 0 0 0 0 0 0 0
0 0 0 0 0 0 0 0 0 0 0 1 1 1 1 1 1 1 1 1 1 1 1 0 0 0 0 0 0 0 0 0 0 1 1 1 0 0 0 0 0 0 0 0 0 0 0 0 0
0 0 0 0 0 0 0 0 0 0 1 1 1 1 1 1 1 1 1 1 1 1 1 0 0 0 0 0 0 0 0 1 1 1 1 1 0 0 0 0 0 0 0 0 0 0 0 0 0
0 0 0 0 0 0 0 0 0 0 1 1 1 1 1 1 1 1 1 1 1 1 1 0 0 0 0 0 0 0 0 0 0 0 0 0 0 0 0 0 1 0 0 0 0 0 0 0 0
0 -0 0 0 0 0 0 0 0 0 1 1 1 1 1 1 1 1 1 1 1 1 1 1 0 0 0 0 1 0 0 0 0 0 0 0 0 0 0 1 1 1 0 0 0 0 0 0 0
0 0 0 0 0 0 0 0 0 1 1 1 1 1 1 1 1 1 1 1 1 1 1 1 1 1 1 1 1 1 0 1 1 1 1 0 0 0 1 1 1 1 1 0 0 0 0 0 0
0 0 0 0 0 0 0 0 0 0 1 1 1 1 1 1 1 1 1 1 1 1 1 1 1 1 1 1 1 1 1 1 1 1 1 1 1 1 1 1 1 1 1 1 1 0 0 0 0
0 0 0 0 0 0 0 0 0 0 0 0 1 1 1 1 1 1 1 1 1 1 1 1 1 1 1 1 1 1 1 1 1 1 1 1 1 1 1 1 1 1 1 1 1 1 0 0 0
0 0 0 0 0 0 0 0 0 0 0 0 1 1 1 1 1 1 1 1 1 1 1 1 1 1 1 1 1 1 1 1 1 2 2 1 1 1 1 1 1 1 1 1 1 1 1 1 1
0 0 0 0 0 0 0 0 0 0 0 0 0 0 1 1 1 1 1 1 1 1 1 1 1 1 1 1 1 1 1 1 2 2 2 2 2 2 2 2 2 1 1 1 1 1 1 1 1
0 0 0 0 0 0 0 0 0 0 0 0 0 0 0 1 1 1 1 1 1 1 1 1 1 1 1 1 1 1 1 2 2 2 2 2 2 2 2 2 2 2 1 1 1 1 1 1 1
-0 0 0 0 0 0 0 0 0 0 0 0 0 0 0 1 1 1 1 1 1 1 1 1 1 1 1 1 1 1 2 2 2 2 2 2 2 2 2 2 2 2 2 2 1 1 1 1 1
0 0 0 0 0 0 0 0 0 0 0 0 0 0 0 0 0 0 0 0 1 1 1 1 1 1 1 2 2 2 2 2 2 2 2 2 2 2 2 2 2 2 2 2 1 1 1 1 1
0 0 0 0 0 0 0 0 0 0 0 0 0 0 1 1 0 0 0 0 1 1 1 1 1 1 1 2 2 2 2 2 2 2 2 2 2 2 2 2 2 2 2 1 1 1 1 1 1
0 0 0 0 0 0 0 0 0 0 0 0 0 1 1 1 0 0 0 0 0 1 1 1 1 1 1 1 2 2 2 2 2 2 2 2 1 1 1 1 1 1 1 1 1 1 1 1 1
-0 0 0 0 0 0 0 0 0 0 0 0 0 0 0 0 0 0 0 0 0 1 1 1 1 1 1 1 1 2 2 2 2 2 1 1 1 1 1 1 1 1 1 1 1 1 1 1 1
-0 0 0 0 0 0 0 0 0 0 0 0 0 0 0 0 0 0 0 0 0 0 1 1 1 1 1 1 1 1 1 1 1 1 1 1 1 1 1 1 1 1 1 1 1 1 1 1 1
0 0 0 0 0 0 0 0 0 0 0 0 0 0 0 0 0 0 0 0 0 0 0 1 1 1 1 1 1 1 1 1 1 1 1 1 1 1 1 1 1 1 1 1 1 1 1 1 1
0 -0 -0 -0 -0 0 0 0 0 0 0 0 0 0 0 0 0 0 0 0 0 0 0 0 0 1 1 1 1 1 1 1 1 1 1 1 1 1 1 1 1 1 1 1 1 1 1 1 1
-0 -0 -0 -0 -0 -0 0 0 0 0 0 0 0 0 0 0 0 0 0 0 0 0 0 0 0 0 0 1 1 1 1 1 1 1 1 1 1 1 1 1 1 1 1 1 1 1 1 1 1
0 0 -0 -0 -0 0 0 0 0 0 0 0 0 0 0 0 0 0 0 0 0 0 0 0 0 0 0 0 0 0 0 0 0 0 0 0 0 0 0 0 0 0 1 1 1 1 1 1 1
0 0 0 -0 -0 -0 0 0 0 0 0 0 0 0 0 0 0 0 0 0 0 0 0 0 0 0 0 0 0 0 0 0 0 0 0 0 0 0 0 0 0 0 0 0 0 0 0 0 0
-0 -0 -0 -0 -0 -0 0 0 0 0 0 0 0 0 0 0 0 0 0 0 0 0 0 0 0 0 0 0 0 0 0 0 0 0 0 0 0 0 0 0 0 0 0 0 0 0 0 0 0
-0 -0 -0 -0 -0 0 0 0 0 0 0 0 0 0 0 0 0 0 0 0 0 0 0 0 0 0 0 0 0 0 0 0 0 0 0 0 0 0 0 0 0 0 0 0 0 0 0 0 0
-0 -0 -0 -0 0 0 0 0 0 0 0 0 0 0 0 0 0 0 0 0 0 0 0 0 0 0 0 0 0 0 0 0 0 0 0 0 0 0 0 0 0 0 0 0 0 0 0 0 0
Wind_Speed
8 12 11 9 9 10 17 18 11 4 5 7 6 6 9 9 9 8 7 15 22 20 18 17 16 16 16 16 15 14 14 14 13 13 12 12 12 11 11 11 11 10 11 11 10 10 10 10 10
11 13 11 9 10 13 15 16 10 6 7 7 4 6 8 11 12 11 10 18 22 20 17 16 16 15 16 16 15 14 14 14 13 13 12 12 11 11 10 10 10 10 9 9 9 9 9 9 9
12 17 10 9 14 16 14 6 6 7 7 4 4 5 7 9 10 12 14 19 20 18 17 16 16 15 15 15 15 15 14 14 13 13 12 12 11 10 9 9 9 9 8 8 9 9 9 9 8
9 10 9 11 17 19 14 2 3 5 6 7 6 7 8 8 9 13 17 19 20 19 18 16 16 15 15 14 15 15 14 14 13 13 12 11 11 10 9 9 8 8 8 8 8 8 8 8 8
11 8 12 14 18 15 7 2 2 5 7 8 7 7 10 10 13 17 16 18 19 20 18 16 15 15 14 14 13 13 14 13 13 12 12 11 10 9 9 8 8 8 8 8 8 8 7 7 7
9 9 13 15 17 10 5 3 5 8 8 9 10 8 7 7 8 14 16 16 19 19 18 15 16 16 15 14 13 12 12 12 12 12 11 11 10 9 8 8 8 7 7 7 7 7 7 6 6
12 12 15 18 13 8 5 4 7 9 6 3 8 10 5 5 5 10 13 16 19 19 17 15 14 14 14 14 13 12 12 12 12 11 11 11 10 9 9 8 7 7 7 7 7 7 6 6 5
12 13 18 18 12 6 5 5 5 6 3 5 6 9 7 5 4 9 12 14 16 17 16 14 14 13 12 12 13 13 12 12 11 11 11 11 11 10 9 8 8 8 8 8 7 7 7 6 5
15 13 16 16 9 4 5 6 5 3 5 6 9 12 11 8 7 8 11 13 13 14 14 13 13 12 12 12 13 12 12 11 11 10 11 10 8 9 8 9 10 9 8 8 8 8 7 7 7
12 13 17 10 3 2 5 5 5 5 7 9 12 12 13 9 7 8 10 11 11 12 11 10 11 10 9 9 10 8 8 9 8 8 9 7 6 6 8 10 13 10 9 8 9 9 8 7 6
14 17 12 4 4 2 2 3 2 3 6 10 12 10 8 9 8 9 10 10 9 9 7 7 7 7 6 7 6 5 5 7 7 8 8 6 5 4 4 5 7 7 8 7 7 8 7 7 6
14 12 8 3 1 3 3 3 5 5 10 11 11 10 5 8 8 9 9 8 9 8 6 5 5 5 5 5 5 4 4 5 5 5 7 5 3 3 3 4 6 6 5 6 6 5 7 7 7
12 9 6 3 2 6 3 3 6 9 12 13 11 9 9 8 10 10 10 10 9 7 5 5 5 5 4 4 2 3 3 4 4 4 5 5 3 3 3 2 3 5 4 5 5 6 6 6 5
10 9 7 7 8 6 6 5 5 7 9 12 12 11 10 10 11 11 12 10 8 7 6 5 4 4 4 2 1 1 1 3 3 3 5 5 4 3 2 2 2 3 3 3 4 5 3 3 2
9 9 10 11 10 9 9 8 7 9 8 10 12 11 11 11 12 13 13 10 9 7 7 4 2 4 3 2 1 1 0 1 1 2 3 4 3 3 3 2 2 3 3 2 2 3 2 3 2
9 12 12 12 12 11 12 9 9 9 8 11 11 10 11 11 13 13 13 10 8 7 7 5 4 5 3 2 1 1 1 0 0 1 1 2 2 2 2 3 3 3 3 2 2 2 2 2 1
12 14 12 10 12 11 11 6 7 5 6 10 10 10 11 11 13 12 12 9 8 8 8 7 6 5 3 2 1 1 1 1 1 1 1 1 1 1 2 3 3 3 3 3 4 3 2 2 2
12 12 12 13 12 12 10 7 9 9 9 9 8 9 11 12 11 10 10 8 8 8 8 7 7 7 5 3 2 1 1 1 1 1 1 1 1 1 2 2 3 3 3 3 3 3 3 3 3
13 11 11 10 10 10 10 12 13 12 10 10 8 9 10 12 11 10 9 9 9 9 8 8 8 8 6 4 3 2 1 1 0 1 2 1 0 1 1 2 2 3 3 4 4 4 4 3 4
9 6 8 7 7 7 8 11 11 9 9 9 9 9 11 11 10 9 8 9 9 9 8 8 8 7 6 4 3 2 2 1 1 2 3 2 1 2 2 1 2 3 3 4 4 4 3 4 5
7 3 2 5 7 9 8 8 8 6 6 7 7 9 10 9 9 9 9 9 9 9 9 8 8 8 7 6 4 3 2 1 2 2 2 2 2 2 2 2 2 2 3 3 4 4 5 4 4
5 3 5 8 9 7 7 5 6 5 6 7 7 7 9 9 9 8 8 8 8 8 8 9 8 8 8 7 6 5 4 3 3 2 2 2 2 2 2 3 3 2 2 2 3 3 4 5 4
5 7 8 9 9 7 6 6 6 9 9 9 8 9 9 9 9 9 8 8 8 8 9 9 9 9 9 8 8 6 5 4 3 3 4 3 2 3 3 3 2 2 2 2 2 2 2 3 4
7 9 7 7 7 8 7 7 7 9 10 9 10 11 10 10 10 9 8 8 8 8 8 8 9 9 9 9 9 8 7 6 6 5 5 3 3 3 5 4 3 3 2 2 2 2 2 2 3
7 5 3 4 4 6 6 5 5 11 12 13 15 14 12 11 10 9 8 8 8 8 8 8 9 9 9 9 9 8 7 7 7 6 5 5 4 4 5 4 3 3 3 2 2 1 1 1 2
7 6 4 4 4 4 4 2 5 9 12 14 15 15 13 11 10 9 8 8 7 8 8 8 9 8 8 8 8 8 7 5 5 6 5 5 4 4 5 4 3 3 3 3 3 2 1 1 1
7 5 3 5 5 3 3 3 7 8 12 14 16 15 13 11 11 10 9 7 8 8 8 8 8 8 8 8 7 7 8 7 6 6 6 5 5 4 5 5 4 4 4 3 3 3 3 2 2
8 5 4 5 4 3 2 0 2 5 7 9 13 13 13 11 11 10 8 8 7 7 7 7 7 7 7 7 6 6 7 6 6 6 7 6 6 5 5 5 5 5 5 5 4 3 3 3 2
7 6 5 5 6 5 1 2 2 5 7 10 11 13 13 12 11 9 8 8 7 7 7 7 7 7 7 7 6 6 6 6 6 6 6 6 6 6 6 6 6 6 6 5 5 4 4 3 3
7 6 6 6 7 6 5 4 3 4 3 7 12 13 12 12 11 10 9 8 7 7 7 7 7 7 7 6 6 6 6 6 6 6 6 5 6 6 6 6 6 6 6 6 5 5 5 4 4
Wind_Direction
247 250 248 249 244 239 248 251 244 160 130 96 67 71 75 69 83 102 123 118 118 122 129 132 133 136 140 142 141 140 138 137 136 135 132 129 125 122 119 117 115 115 117 117 115 114 112 113 112
253 237 237 244 247 242 241 239 222 161 108 98 112 109 97 87 99 114 120 119 121 127 136 133 134 137 141 144 143 143 144 143 141 140 138 136 133 130 126 124 122 119 118 120 120 119 119 121 122
255 252 240 238 239 251 262 246 160 140 115 140 150 110 95 98 105 121 125 125 125 130 128 127 135 137 141 145 146 147 148 148 147 146 145 142 140 136 133 133 131 126 124 125 127 126 127 130 132
232 231 235 245 246 242 254 279 115 163 163 180 160 113 100 99 111 121 132 132 131 127 125 130 134 135 140 144 148 151 152 151 150 150 149 147 145 142 141 141 139 135 133 133 134 134 136 139 140
238 234 231 246 251 254 241 136 163 227 193 179 150 111 92 78 110 130 135 134 130 126 127 131 131 132 137 143 147 151 152 152 152 152 151 150 148 147 147 148 145 144 143 142 142 142 144 147 149
224 232 239 246 247 239 236 200 211 235 210 179 137 117 82 88 116 131 132 131 125 125 127 130 131 133 135 139 143 147 150 151 152 152 153 152 152 151 152 154 153 154 154 153 150 149 152 155 160
242 248 252 255 249 220 198 207 224 229 212 140 133 123 118 105 132 130 130 126 125 126 131 140 139 137 137 137 139 140 143 148 150 151 152 153 154 156 158 158 159 162 161 160 159 160 165 165 171
244 265 268 266 259 224 165 203 234 242 136 97 109 122 132 151 168 138 130 125 124 129 135 144 149 147 148 145 144 143 142 144 148 153 157 158 160 166 168 168 169 170 171 171 172 173 176 176 185
241 257 265 263 249 194 155 194 200 98 94 85 90 109 138 164 175 151 133 127 131 130 136 148 149 153 160 154 148 148 148 149 153 160 164 167 177 179 180 190 170 178 181 182 181 181 184 186 198
232 248 256 269 276 140 158 204 191 164 131 109 108 121 142 159 170 146 128 123 127 124 134 140 145 153 158 148 145 160 166 160 177 173 173 190 198 192 189 175 165 178 187 192 193 193 195 206 204
230 247 268 313 0 356 157 145 74 172 132 116 121 126 142 155 146 129 122 117 114 115 108 117 128 131 137 131 152 167 173 161 189 185 179 200 209 197 182 156 163 177 188 198 194 199 212 215 217
238 249 271 282 344 286 267 130 107 82 80 85 109 127 163 128 103 94 95 101 89 83 91 104 109 116 120 128 157 166 164 158 181 180 182 195 211 214 180 167 175 183 192 201 190 206 219 224 227
237 246 251 251 231 239 236 166 120 111 113 111 106 116 112 98 86 83 81 76 78 79 73 80 83 82 82 93 153 159 152 159 178 169 181 191 197 225 213 186 182 196 195 193 198 207 216 225 234
230 233 228 227 218 216 218 174 142 132 127 116 108 98 98 84 75 70 68 66 70 73 59 50 65 74 69 83 102 107 149 143 169 168 188 195 197 197 209 206 202 224 221 199 209 219 211 211 240
234 228 216 217 211 203 216 196 167 151 147 126 111 105 93 83 77 70 63 52 49 59 63 47 81 79 68 56 12 61 79 130 158 158 181 194 206 191 197 215 213 238 246 219 224 234 229 201 198
231 227 217 206 203 200 217 202 155 165 164 131 122 113 95 84 76 73 69 59 39 39 51 37 46 65 59 48 10 350 355 64 148 140 154 191 220 194 196 212 216 228 243 234 224 229 231 210 167
221 223 215 197 198 196 213 184 146 194 179 139 130 117 106 90 74 71 74 69 58 49 48 40 31 42 31 24 18 334 14 14 22 64 87 129 238 228 214 221 218 217 229 224 225 209 205 195 162
224 218 204 195 195 205 202 162 151 200 201 144 133 118 108 95 82 75 74 69 61 56 47 37 35 32 19 24 21 354 9 12 76 90 91 114 213 241 242 239 229 224 225 225 221 206 201 189 164
254 227 207 184 179 208 197 164 177 190 170 148 146 127 112 101 93 82 73 66 60 52 45 36 32 28 19 20 6 351 359 6 23 90 84 67 316 266 248 255 241 228 224 222 223 214 197 190 159
263 222 174 168 173 214 198 177 172 172 164 152 148 129 116 108 96 83 74 64 57 48 40 38 31 27 21 13 348 329 336 344 55 63 60 41 19 348 283 264 254 235 231 221 215 210 202 199 183
264 276 178 175 198 219 208 192 163 159 139 130 128 120 118 111 100 89 71 57 52 48 40 35 30 27 20 11 2 353 359 15 47 56 61 36 18 12 345 319 286 267 245 232 217 209 211 207 204
251 245 234 209 214 216 212 213 175 163 167 166 148 129 119 110 102 91 79 66 54 49 51 43 36 30 22 20 19 12 12 16 20 16 33 43 30 19 360 336 322 306 287 261 237 215 221 207 208
268 252 241 240 237 240 218 220 186 175 192 182 155 137 123 113 104 93 81 71 59 51 55 49 41 34 26 24 24 20 24 22 19 17 20 23 32 27 11 353 337 312 302 296 267 240 222 214 217
258 253 256 271 262 245 253 248 174 177 190 174 157 140 131 119 110 100 92 82 67 54 53 50 46 38 31 30 28 25 25 24 24 22 14 13 21 23 11 5 353 340 334 318 293 254 230 229 227
263 268 276 279 263 262 278 262 159 169 166 163 159 147 138 126 118 112 99 84 70 57 51 50 50 41 32 32 31 27 25 27 31 21 18 14 16 15 7 9 3 350 343 339 332 305 260 247 243
252 247 250 268 262 252 258 235 134 135 135 141 140 133 130 125 118 109 93 81 74 67 57 53 51 46 37 34 32 32 28 30 32 26 19 19 17 13 6 8 11 8 3 1 360 353 350 338 287
257 265 257 262 276 275 232 148 110 100 117 128 130 131 132 125 118 109 99 88 76 69 62 58 56 51 44 38 34 37 34 33 32 29 27 23 17 12 15 16 15 18 18 15 18 31 27 21 25
251 271 274 275 285 266 244 273 133 147 145 144 141 138 133 128 119 111 105 94 84 78 73 66 64 61 54 48 39 42 39 37 36 36 32 27 18 14 18 24 19 25 28 26 28 34 34 39 40
260 261 278 289 298 308 280 144 159 194 183 163 149 141 137 132 124 118 110 103 96 85 75 65 62 61 56 50 46 45 42 39 41 41 36 30 21 20 24 24 28 33 31 30 32 36 36 44 50
275 282 284 289 303 310 317 107 125 162 170 155 142 133 129 126 124 119 112 105 94 84 76 71 65 62 59 55 50 48 46 42 41 40 34 30 28 26 29 31 37 42 40 34 34 37 39 42 54